When you browse on this site, cookies collect data to enhance your experience and personalize the content and advertising you see.
Visit our Privacy Policy to learn more. By continuing to use the site, you agree to this use of cookies and data.

Hourly Weather Starye Polya

Today, 10 July, Friday

Time Temperature Precipitation Wind Pressure Humidity
00:00 +9°C° 0 mm 2 mps 740 mmHg 85%
01:00 +8°C° 0 mm 2 mps 741 mmHg 87%
02:00 +9°C° 0 mm 1 mps 741 mmHg 89%
03:00 +9°C° 0 mm 1 mps 741 mmHg 88%
04:00 +10°C° 0 mm 1 mps 741 mmHg 86%
05:00 +11°C° 0 mm 1 mps 741 mmHg 85%
06:00 +13°C° 0 mm 2 mps 742 mmHg 77%
07:00 +15°C° 0 mm 2 mps 742 mmHg 68%
08:00 +17°C° 0 mm 3 mps 742 mmHg 60%
09:00 +18°C° 0 mm 3 mps 742 mmHg 57%
10:00 +19°C° 0 mm 3 mps 742 mmHg 53%
11:00 +20°C° 0 mm 3 mps 742 mmHg 49%
12:00 +20°C° 0 mm 4 mps 741 mmHg 47%
13:00 +21°C° 0 mm 4 mps 741 mmHg 46%
14:00 +22°C° 0 mm 4 mps 741 mmHg 44%
15:00 +19°C° 0.3 mm 3 mps 741 mmHg 58%
16:00 +17°C° 0.3 mm 3 mps 740 mmHg 73%
17:00 +15°C° 0.3 mm 2 mps 740 mmHg 87%
18:00 +14°C° 0.9 mm 3 mps 740 mmHg 90%
19:00 +14°C° 0.9 mm 3 mps 740 mmHg 93%
20:00 +13°C° 0.9 mm 4 mps 739 mmHg 96%
21:00 +14°C° 0.7 mm 4 mps 739 mmHg 96%
22:00 +14°C° 0.7 mm 4 mps 739 mmHg 96%
23:00 +15°C° 0.7 mm 5 mps 738 mmHg 96%

Tomorrow, 11 July, Saturday

Time Temperature Precipitation Wind Pressure Humidity
00:00 +15°C° 0.1 mm 5 mps 738 mmHg 96%
01:00 +17°C° 0.1 mm 4 mps 738 mmHg 96%
02:00 +17°C° 0.1 mm 4 mps 738 mmHg 96%
03:00 +17°C° 0 mm 4 mps 738 mmHg 96%
04:00 +17°C° 0 mm 4 mps 738 mmHg 96%
05:00 +17°C° 0 mm 4 mps 738 mmHg 96%
06:00 +18°C° 0.1 mm 4 mps 738 mmHg 95%
07:00 +18°C° 0.1 mm 4 mps 738 mmHg 94%
08:00 +19°C° 0.1 mm 5 mps 738 mmHg 93%
09:00 +20°C° 0.3 mm 5 mps 737 mmHg 91%
10:00 +21°C° 0.3 mm 5 mps 737 mmHg 88%
11:00 +22°C° 0.3 mm 6 mps 737 mmHg 86%
12:00 +22°C° 0.2 mm 6 mps 737 mmHg 85%
13:00 +22°C° 0.2 mm 6 mps 738 mmHg 84%
14:00 +23°C° 0.2 mm 6 mps 738 mmHg 84%
15:00 +23°C° 0.1 mm 5 mps 738 mmHg 72%
16:00 +23°C° 0.1 mm 5 mps 738 mmHg 61%
17:00 +25°C° 0.1 mm 5 mps 739 mmHg 49%
18:00 +22°C° 0 mm 4 mps 739 mmHg 56%
19:00 +19°C° 0 mm 4 mps 739 mmHg 63%
20:00 +17°C° 0 mm 3 mps 740 mmHg 69%
21:00 +16°C° 0 mm 2 mps 740 mmHg 75%
22:00 +15°C° 0 mm 2 mps 740 mmHg 80%
23:00 +13°C° 0 mm 2 mps 741 mmHg 85%

Day after tomorrow, 12 July, Sunday

Time Temperature Precipitation Wind Pressure Humidity
00:00 +13°C° 0 mm 2 mps 741 mmHg 86%
01:00 +12°C° 0 mm 1 mps 741 mmHg 88%
02:00 +12°C° 0 mm 1 mps 741 mmHg 90%
03:00 +12°C° 0 mm 1 mps 741 mmHg 87%
04:00 +13°C° 0 mm 1 mps 741 mmHg 85%
05:00 +13°C° 0 mm 1 mps 741 mmHg 82%
06:00 +14°C° 0 mm 1 mps 742 mmHg 82%
07:00 +14°C° 0 mm 1 mps 742 mmHg 83%
08:00 +14°C° 0 mm 1 mps 742 mmHg 83%
09:00 +13°C° 0.3 mm 1 mps 742 mmHg 86%
10:00 +13°C° 0.3 mm 1 mps 742 mmHg 90%
11:00 +13°C° 0.3 mm 1 mps 742 mmHg 94%
12:00 +12°C° 0.5 mm 1 mps 742 mmHg 95%
13:00 +12°C° 0.5 mm 1 mps 742 mmHg 95%
14:00 +12°C° 0.5 mm 1 mps 742 mmHg 96%
15:00 +12°C° 0.1 mm 1 mps 742 mmHg 96%
16:00 +12°C° 0.1 mm 1 mps 741 mmHg 96%
17:00 +11°C° 0.1 mm 0 mps 741 mmHg 96%
18:00 +12°C° 0.2 mm 1 mps 741 mmHg 96%
19:00 +12°C° 0.2 mm 1 mps 741 mmHg 96%
20:00 +11°C° 0.2 mm 1 mps 741 mmHg 96%
21:00 +11°C° 0 mm 1 mps 741 mmHg 96%
22:00 +11°C° 0 mm 1 mps 741 mmHg 96%
23:00 +11°C° 0 mm 1 mps 740 mmHg 96%

13 July, Monday

Time Temperature Precipitation Wind Pressure Humidity
00:00 +11°C° 0.1 mm 1 mps 740 mmHg 96%
01:00 +12°C° 0.1 mm 2 mps 740 mmHg 96%
02:00 +12°C° 0.1 mm 2 mps 740 mmHg 97%
03:00 +12°C° 0.7 mm 2 mps 740 mmHg 97%
04:00 +12°C° 0.7 mm 2 mps 739 mmHg 97%
05:00 +11°C° 0.7 mm 3 mps 739 mmHg 98%
06:00 +11°C° 1.8 mm 3 mps 739 mmHg 98%
07:00 +11°C° 1.8 mm 3 mps 739 mmHg 98%
08:00 +11°C° 1.8 mm 3 mps 738 mmHg 98%
09:00 +11°C° 1.4 mm 3 mps 738 mmHg 98%
10:00 +11°C° 1.4 mm 3 mps 738 mmHg 97%
11:00 +11°C° 1.4 mm 3 mps 738 mmHg 97%
12:00 +11°C° 0.1 mm 3 mps 738 mmHg 96%
13:00 +12°C° 0.1 mm 3 mps 738 mmHg 96%
14:00 +12°C° 0.1 mm 3 mps 737 mmHg 95%
15:00 +12°C° 0 mm 3 mps 737 mmHg 94%
16:00 +12°C° 0 mm 3 mps 737 mmHg 93%
17:00 +13°C° 0 mm 3 mps 736 mmHg 92%
18:00 +13°C° 0 mm 2 mps 736 mmHg 92%
19:00 +13°C° 0 mm 2 mps 736 mmHg 93%
20:00 +13°C° 0 mm 2 mps 736 mmHg 94%
21:00 +12°C° 0 mm 2 mps 736 mmHg 95%
22:00 +12°C° 0 mm 2 mps 735 mmHg 96%
23:00 +10°C° 0 mm 2 mps 735 mmHg 97%

14 July, Tuesday

Time Temperature Precipitation Wind Pressure Humidity
00:00 +12°C° 0 mm 2 mps 735 mmHg 97%
01:00 +11°C° 0 mm 3 mps 735 mmHg 97%
02:00 +11°C° 0 mm 3 mps 735 mmHg 96%
03:00 +11°C° 0 mm 3 mps 735 mmHg 95%
04:00 +11°C° 0 mm 3 mps 735 mmHg 93%
05:00 +11°C° 0 mm 4 mps 734 mmHg 92%
06:00 +13°C° 0 mm 4 mps 734 mmHg 84%
07:00 +14°C° 0 mm 4 mps 734 mmHg 76%
08:00 +15°C° 0 mm 5 mps 734 mmHg 69%
09:00 +17°C° 0 mm 5 mps 734 mmHg 64%
10:00 +19°C° 0 mm 5 mps 734 mmHg 60%
11:00 +20°C° 0 mm 5 mps 734 mmHg 55%
12:00 +20°C° 0 mm 5 mps 734 mmHg 53%
13:00 +21°C° 0 mm 5 mps 734 mmHg 51%
14:00 +21°C° 0 mm 5 mps 734 mmHg 50%
15:00 +21°C° 0 mm 5 mps 734 mmHg 51%
16:00 +21°C° 0 mm 5 mps 734 mmHg 52%
17:00 +21°C° 0 mm 5 mps 734 mmHg 53%
18:00 +19°C° 0 mm 4 mps 734 mmHg 57%
19:00 +17°C° 0 mm 4 mps 735 mmHg 60%
20:00 +15°C° 0 mm 4 mps 735 mmHg 64%
21:00 +13°C° 0 mm 3 mps 735 mmHg 66%
22:00 +12°C° 0 mm 3 mps 735 mmHg 68%
23:00 +11°C° 0 mm 3 mps 735 mmHg 70%

15 July, Wednesday

Time Temperature Precipitation Wind Pressure Humidity
00:00 +10°C° 0 mm 3 mps 735 mmHg 74%
01:00 +10°C° 0 mm 2 mps 736 mmHg 78%
02:00 +9°C° 0 mm 2 mps 736 mmHg 82%
03:00 +9°C° 0 mm 2 mps 736 mmHg 82%
04:00 +9°C° 0 mm 2 mps 736 mmHg 82%
05:00 +10°C° 0 mm 3 mps 736 mmHg 81%
06:00 +12°C° 0 mm 3 mps 736 mmHg 73%
07:00 +14°C° 0 mm 4 mps 736 mmHg 65%
08:00 +17°C° 0 mm 4 mps 736 mmHg 57%
09:00 +18°C° 0 mm 4 mps 737 mmHg 54%
10:00 +19°C° 0 mm 5 mps 737 mmHg 51%
11:00 +20°C° 0 mm 5 mps 737 mmHg 48%
12:00 +20°C° 0 mm 5 mps 737 mmHg 49%
13:00 +20°C° 0 mm 5 mps 737 mmHg 50%
14:00 +20°C° 0 mm 4 mps 737 mmHg 50%
15:00 +20°C° 0 mm 4 mps 737 mmHg 53%
16:00 +20°C° 0 mm 4 mps 737 mmHg 56%
17:00 +19°C° 0 mm 3 mps 738 mmHg 59%
18:00 +18°C° 0 mm 3 mps 738 mmHg 67%
19:00 +16°C° 0 mm 2 mps 738 mmHg 75%
20:00 +15°C° 0 mm 1 mps 738 mmHg 82%
21:00 +14°C° 0 mm 1 mps 739 mmHg 87%
22:00 +12°C° 0 mm 1 mps 739 mmHg 91%
23:00 +11°C° 0 mm 1 mps 739 mmHg 95%
Show more